Location: Nairn
(57.5833°N, 3.8667°W)
Time: 09:44:18
(UTC+00:00)

Vanguard 1 - Pass Details

Date: 01 December 2020
Orbit: 649 x 3834 km, 34.3° (Epoch: 15 January)

Event Time Altitude Azimuth Distance (km) Brightness Sun altitude
Rises 09:16:00 0° 246° (WSW) 4,483 13.3 3.1°
Reaches altitude 10° 09:20:36 10° 223° (SW) 4,060 13.4 3.5°
Maximum altitude 09:25:47 14° 195° (SSW) 4,298 14.0 3.9°
Drops below altitude 10° 09:32:19 10° 168° (SSE) 5,347 15.3 4.4°
Sets 09:40:35 0° 150° (SSE) 7,081 17.4 5.0°
